Location: Nelson
(41.2830°S, 173.2830°E)
Time: 19:01:08
(UTC+12:00)

Cosmos 1953 Rocket - Pass Details

Date: 14 May 2021
Orbit: 605 x 634 km, 82.5° (Epoch: 19 June)

Event Time Altitude Azimuth Distance (km) Brightness Sun altitude
Rises 17:46:38 0° 355° (N) 2,895 7.4 -5.6°
Reaches altitude 10° 17:48:50 10° 355° (N) 2,002 6.5 -6.0°
Maximum altitude 17:53:17 87° 82° (E) 644 3.6 -6.8°
Drops below altitude 10° 17:57:51 10° 172° (S) 2,048 6.0 -7.6°
Sets 18:00:07 0° 171° (S) 2,968 6.8 -8.0°
